Frisco, NC

12:08 PM EDT on September 26, 2016 (GMT -0400)
Mitchell

Weather History for KHSE - September, 2013

Change the Weather History Date:

Friday, September 6, 2013

  Actual Average Record
Temperature  
Mean Temperature 80 °F 77 °F  
Max Temperature 86 °F 82 °F 90 °F (1983)
Min Temperature 73 °F 71 °F 54 °F (1997)
Degree Days  
Heating Degree Days 0 0  
Month to date heating degree days 0 0  
Since 1 July heating degree days 0 0  
Cooling Degree Days 15 12  
Month to date cooling degree days 94 72  
Year to date cooling degree days 1638 1378  
Growing Degree Days 28 (Base 50)    
Moisture  
Dew Point 68 °F    
Average Humidity 75    
Maximum Humidity 93    
Minimum Humidity 57    
Precipitation  
Precipitation 0.00 in 0.22 in 5.40 in (1979)
Month to date precipitation 1.33 1.35  
Year to date precipitation 32.53 38.54  
Snow  
Snow 0.00 in - - ()
Month to date snowfall 0.0  
Since 1 July snowfall 0.0  
Snow Depth 0.00 in    
Sea Level Pressure  
Sea Level Pressure 30.08 in    
Wind  
Wind Speed 8 mph (NE)    
Max Wind Speed 16 mph    
Max Gust Speed 26 mph    
Visibility 10 miles    
Events      
T = Trace of Precipitation, MM = Missing Value Source: NWS Daily Summary

Daily Weather History Graph

Daily Weather History Graph

Search for Another Location

Airport or City:

Trip Planner

Search our weather history database for the weather conditions in past years. The results will help you decide how hot, cold, wet, or windy it might be!

Date:

Astronomy

Sep. 06, 2013 Rise Set
Actual Time 6:38 AM EDT 7:22 PM EDT
Civil Twilight 6:13 AM EDT 7:47 PM EDT
Nautical Twilight 5:42 AM EDT 8:17 PM EDT
Astronomical Twilight 5:11 AM EDT 8:49 PM EDT
Moon 7:44 AM EDT (9/6) 7:50 PM EDT (9/6)
Length of Visible Light 13h 34m
Length of Day
12h 43m
New Moon, 1% of the Moon is Illuminated
Sep 6
New Moon
Sep 12
First Quarter
Sep 19
Full
Sep 26
Last Quarter
Oct 4
New

Hourly Weather History & Observations

Time (EDT) Temp. Heat Index Dew Point Humidity Pressure Visibility Wind Dir Wind Speed Gust Speed Precip Events Conditions
12:51 AM 75.0 °F - 72.0 °F 90% 30.05 in 8.0 mi Calm Calm - N/A   Partly Cloudy
1:51 AM 73.9 °F - 71.1 °F 91% 30.04 in 7.0 mi Calm Calm - N/A   Clear
2:51 AM 77.0 °F - 73.9 °F 90% 30.03 in 9.0 mi WNW 3.5 mph - N/A   Scattered Clouds
3:51 AM 73.9 °F - 72.0 °F 93% 30.03 in 8.0 mi Calm Calm - N/A   Partly Cloudy
4:51 AM 73.9 °F - 72.0 °F 93% 30.03 in 9.0 mi Calm Calm - N/A   Clear
5:51 AM 75.0 °F - 72.0 °F 90% 30.04 in 9.0 mi NNE 3.5 mph - N/A   Partly Cloudy
6:51 AM 75.9 °F - 72.0 °F 87% 30.05 in 8.0 mi NE 4.6 mph - N/A   Clear
7:51 AM 79.0 °F - 73.0 °F 82% 30.07 in 9.0 mi ENE 8.1 mph - N/A   Scattered Clouds
8:51 AM 80.1 °F 83.2 °F 70.0 °F 71% 30.09 in 10.0 mi ENE 9.2 mph 17.3 mph N/A   Clear
9:51 AM 81.0 °F 84.1 °F 69.1 °F 67% 30.10 in 10.0 mi NE 9.2 mph 16.1 mph N/A   Clear
10:51 AM 82.9 °F 87.0 °F 70.0 °F 65% 30.11 in 10.0 mi ENE 9.2 mph 17.3 mph N/A   Mostly Cloudy
11:51 AM 84.9 °F 89.4 °F 70.0 °F 61% 30.11 in 10.0 mi NE 8.1 mph 18.4 mph N/A   Scattered Clouds
12:51 PM 84.0 °F 88.4 °F 70.0 °F 63% 30.11 in 10.0 mi ENE 11.5 mph 17.3 mph N/A   Partly Cloudy
1:51 PM 82.9 °F 87.0 °F 70.0 °F 65% 30.10 in 10.0 mi NE 13.8 mph 26.5 mph N/A   Partly Cloudy
2:51 PM 82.9 °F 85.8 °F 68.0 °F 60% 30.08 in 10.0 mi NE 11.5 mph 20.7 mph N/A   Clear
3:51 PM 80.1 °F 82.3 °F 66.9 °F 64% 30.08 in 10.0 mi ENE 12.7 mph 24.2 mph N/A   Mostly Cloudy
4:51 PM 79.0 °F - 66.9 °F 66% 30.08 in 10.0 mi NE 13.8 mph 20.7 mph N/A   Mostly Cloudy
5:51 PM 78.1 °F - 64.9 °F 64% 30.08 in 10.0 mi ENE 10.4 mph 23.0 mph N/A   Clear
6:51 PM 75.9 °F - 64.0 °F 67% 30.08 in 10.0 mi ENE 12.7 mph 21.9 mph N/A   Clear
7:51 PM 75.0 °F - 63.0 °F 66% 30.08 in 10.0 mi NE 12.7 mph 21.9 mph N/A   Partly Cloudy
8:51 PM 75.0 °F - 60.1 °F 60% 30.09 in 10.0 mi NE 8.1 mph 19.6 mph N/A   Clear
9:51 PM 73.9 °F - 57.9 °F 57% 30.09 in 10.0 mi ENE 11.5 mph 20.7 mph N/A   Clear
10:51 PM 73.9 °F - 57.9 °F 57% 30.10 in 10.0 mi ENE 8.1 mph 17.3 mph N/A   Mostly Cloudy
11:51 PM 75.0 °F - 60.1 °F 60% 30.10 in 10.0 mi ENE 5.8 mph - N/A   Overcast